Tracking 28790 objects as of 19-Apr-2024
HD Live streaming from Space Station
objects crossing your sky now

FENGYUN 1C DEB

Track FENGYUN 1C DEB now!
10-day predictions


NORAD ID: 35183
Int'l Code: 1999-025DNP
Perigee: 575.8 km
Apogee: 671.5 km
Inclination: 98.8 °
Period: 97.0 minutes
Semi major axis: 6994 km
RCS: 0.0115 m2 (small)
Launch date: May 10, 1999
Source: People's Republic of China (PRC)
Launch site: Taiyaun Space Center, China (TSC)

Note: This is SATELLITE DEBRIS
Your satellite tracking list
Your tracking list is empty




NASA's NSSDC Master Catalog

Two Line Element Set (TLE):
1 35183U 99025DNP 24110.08872602  .00041779  00000-0  47890-2 0  9994
2 35183  98.8375 216.7265 0068388 283.7114  75.6491 14.84060348854029
Source of the keplerian elements: AFSPC